Location: Newark
(58.8333°N, 23.5833°E)
Time: 00:20:09
(UTC+00:00)

A-11 Canister half - Pass Details

Date: 17 November 2019
Orbit: 1515 x 1685 km, 47.2° (Epoch: 08 December)

Event Time Altitude Azimuth Distance (km) Brightness Sun altitude
Rises 18:51:54 0° 245° (WSW) 4,924 12.1 -36.6°
Reaches altitude 10° 18:55:15 10° 239° (WSW) 3,945 11.4 -37.0°
Enters shadow 19:02:03 37° 204° (SSW) 2,407 9.8 -37.7°
Maximum altitude 19:04:32 43° 173° (S) 2,238 - -38.0°
Drops below altitude 10° 19:13:45 10° 107° (ESE) 3,919 - -39.0°
Sets 19:17:04 0° 101° (E) 4,889 - -39.4°
